User: anonymous   Login
Location: Unspecified
(0.0000°N, 0.0000°E)
Time: 16:32:15
(UTC+00:00)
Language:

METEOR-M - Orbit

View from above orbital plane
View from above orbital plane
View from above satellite
View from above satellite

Ground track
Ground track

The orbit data is extracted from the following two-line orbital elements,

1 35865U 09049A   14326.05806752  .00000210  00000-0  11430-3 0   961
2 35865 098.5307 008.5232 0002891 015.4362 344.6915 14.21954339268775
Epoch (UTC): 22 November 2014 01:23:37
Eccentricity: 0.0002891
inclination: 98.5307°
perigee height: 816 km
apogee height: 821 km
right ascension of ascending node: 8.5232°
argument of perigee: 15.4362°
revolutions per day: 14.21954339
mean anomaly at epoch: 344.6915°
orbit number at epoch: 26877

The dashed part of the orbit path shows where the satellite is in the earth's shadow,  

DLR